This is the latest recevied weather packets stored in our database for station/object IK2ILW-4. If no packets are shown the sender has not sent any weather packets the latest 10 day(s).
| Time | Temp. | Humidity | Pressure | Rain* | Wind** | Luminosity | Snow |
|---|---|---|---|---|---|---|---|
| 1787507557 | 17.78° C | 78% | 1022.7 hPa | 0 mm | - | 14 W/m² | - |
| 1787507265 | 17.78° C | 77% | 1022.7 hPa | 0 mm | - | 14 W/m² | - |
| 1787506961 | 18.33° C | 77% | 1022.7 hPa | 0 mm | - | 21 W/m² | - |
| 1787506661 | 18.33° C | 76% | 1022.7 hPa | 0 mm | - | 28 W/m² | - |
| 1787506362 | 17.78° C | 76% | 1022.7 hPa | 0 mm | - | 33 W/m² | - |
| 1787506058 | 17.78° C | 76% | 1022.7 hPa | 0 mm | - | 44 W/m² | - |
| 1787505755 | 17.78° C | 76% | 1022.7 hPa | 0 mm | - | 30 W/m² | - |
| 1787505468 | 17.78° C | 76% | 1022.7 hPa | 0 mm | - | 26 W/m² | - |
| 1787505164 | 17.78° C | 77% | 1022.7 hPa | 0 mm | - | 32 W/m² | - |
| 1787504859 | 17.78° C | 76% | 1022.7 hPa | 0 mm | - | 35 W/m² | - |
| 1787504567 | 17.78° C | 76% | 1022.7 hPa | 0 mm | - | 42 W/m² | - |
| 1787504264 | 18.33° C | 76% | 1023.6 hPa | 0 mm | - | 46 W/m² | - |
| 1787503960 | 18.33° C | 75% | 1023.6 hPa | 0 mm | - | 54 W/m² | - |
| 1787503670 | 18.33° C | 74% | 1023.6 hPa | 0 mm | - | 54 W/m² | - |
| 1787503363 | 19.44° C | 73% | 1022.6 hPa | 0 mm | - | 56 W/m² | - |
| 1787503059 | 19.44° C | 71% | 1022.6 hPa | 0 mm | - | 195 W/m² | - |
| 1787502769 | 19.44° C | 74% | 1022.6 hPa | 0 mm | - | 213 W/m² | - |
| 1787502465 | 19.44° C | 71% | 1023.6 hPa | 0 mm | - | 236 W/m² | - |
| 1787502158 | 19.44° C | 71% | 1023.6 hPa | 0 mm | - | 244 W/m² | - |
| 1787501867 | 20° C | 72% | 1023.6 hPa | 0 mm | - | 265 W/m² | - |
| 1787501556 | 20.56° C | 70% | 1023.7 hPa | 0 mm | - | 283 W/m² | - |
| 1787501255 | 20° C | 69% | 1023.7 hPa | 0 mm | - | 301 W/m² | - |
| 1787500962 | 20° C | 69% | 1023.7 hPa | 0 mm | - | 315 W/m² | - |
| 1787500657 | 20.56° C | 69% | 1023.8 hPa | 0 mm | - | 359 W/m² | - |
| 1787500357 | 20° C | 71% | 1023.8 hPa | 0 mm | - | 399 W/m² | - |
* Rain since midnight (hover to see other rain measurements)
** Current wind speed in m/s (hover to see current wind gust speed)